Location: ????
(32.1228°N, 34.8377°E)
Time: 01:07:47
(UTC+00:00)

Cosmos 1980 Rocket - Pass Details

Date: 21 September 2020
Orbit: 831 x 848 km, 71.0° (Epoch: 21 October)

Event Time Altitude Azimuth Distance (km) Brightness Sun altitude
Exits shadow 02:05:46 11° 313° (NW) 2,368 4.2 -18.2°
Drops below altitude 10° 02:06:56 10° 325° (NW) 2,467 4.4 -17.9°
Sets 02:11:21 0° 357° (N) 3,402 5.5 -17.0°
